KA7EII-13 Weather Reports


time (UTC)temp
C
wind
direction
speed
KPH
gust
KPH
rain 1hr
cm
rain 24hr
cm
rain mn
cm
humidity
%
barometer
mb
20260505005015 20 337 3.2 9.7 0.00 0.00 0.00 32 1095.9
20260505004512 20 302 1.6 4.8 0.00 0.00 0.00 33 1095.9
20260505004008 20 2 3.2 4.8 0.00 0.00 0.00 33 1095.9
20260505003506 20 339 8.0 11.3 0.00 0.00 0.00 32 1095.7
20260505003003 20 18 8.0 11.3 0.00 0.00 0.00 33 1095.8
20260505002458 20 343 6.4 16.1 0.00 0.00 0.00 32 1095.3
20260505001957 20 53 6.4 9.7 0.00 0.00 0.00 32 1095.5
20260505001454 20 163 6.4 16.1 0.00 0.00 0.00 33 1095.5
20260505000950 20 68 6.4 17.7 0.00 0.00 0.00 33 1095.5
20260505000449 21 72 8.0 16.1 0.00 0.00 0.00 32 1095.1
20260504235945 21 349 11.3 20.9 0.00 0.00 0.00 31 1095.2
20260504235442 21 342 11.3 16.1 0.00 0.00 0.00 29 1095.0
20260504234939 22 62 4.8 12.9 0.00 0.00 0.00 28 1094.9
20260504234436 22 24 3.2 8.0 0.00 0.00 0.00 25 1094.6
20260504233932 22 343 4.8 8.0 0.00 0.00 0.00 26 1094.6
20260504233428 22 357 4.8 4.8 0.00 0.00 0.00 25 1094.7
20260504232925 22 44 3.2 8.0 0.00 0.00 0.00 25 1094.6
20260504232422 23 55 4.8 8.0 0.00 0.00 0.00 24 1094.9
20260504231919 23 330 4.8 12.9 0.00 0.00 0.00 24 1094.7
20260504231416 24 217 1.6 1.6 0.00 0.00 0.00 25 1094.7
20260504230912 23 162 3.2 12.9 0.00 0.00 0.00 26 1095.0
20260504230409 23 8 8.0 14.5 0.00 0.00 0.00 24 1094.9
20260504225908 23 2 8.0 12.9 0.00 0.00 0.00 23 1095.2
20260504225404 24 13 1.6 8.0 0.00 0.00 0.00 23 1095.2
20260504224902 23 176 3.2 4.8 0.00 0.00 0.00 27 1095.1
20260504224358 23 2 3.2 8.0 0.00 0.00 0.00 24 1095.3
20260504223855 23 279 8.0 14.5 0.00 0.00 0.00 25 1095.2
20260504223350 24 132 3.2 12.9 0.00 0.00 0.00 26 1095.1
20260504222847 24 47 1.6 8.0 0.00 0.00 0.00 25 1095.2
20260504222344 24 29 4.8 8.0 0.00 0.00 0.00 25 1095.5
20260504221843 25 4 3.2 9.7 0.00 0.00 0.00 24 1095.3
20260504221339 25 175 3.2 11.3 0.00 0.00 0.00 25 1095.5
20260504220836 24 237 4.8 8.0 0.00 0.00 0.00 25 1095.4
20260504220333 24 300 4.8 8.0 0.00 0.00 0.00 24 1095.4
20260504215830 23 350 3.2 11.3 0.00 0.00 0.00 24 1095.8
20260504215326 24 254 6.4 12.9 0.00 0.00 0.00 25 1095.7
20260504214822 25 243 3.2 8.0 0.00 0.00 0.00 25 1095.7
20260504214320 23 198 1.6 1.6 0.00 0.00 0.00 27 1095.9
20260504213816 23 312 4.8 9.7 0.00 0.00 0.00 26 1096.1
20260504213312 22 277 4.8 12.9 0.00 0.00 0.00 26 1096.1
20260504212810 23 330 4.8 12.9 0.00 0.00 0.00 27 1096.3
20260504212306 23 313 6.4 16.1 0.00 0.00 0.00 26 1096.1
20260504211804 24 29 4.8 9.7 0.00 0.00 0.00 25 1096.3
20260504211259 24 257 4.8 9.7 0.00 0.00 0.00 26 1096.3
20260504210757 23 14 1.6 8.0 0.00 0.00 0.00 27 1096.2
20260504210254 23 279 3.2 4.8 0.00 0.00 0.00 26 1096.2
20260504205751 23 329 4.8 9.7 0.00 0.00 0.00 26 1096.6
20260504205249 23 237 4.8 9.7 0.00 0.00 0.00 26 1096.6
20260504204747 23 287 3.2 9.7 0.00 0.00 0.00 26 1096.5
20260504204245 23 226 3.2 8.0 0.00 0.00 0.00 29 1096.7
20260504203744 23 220 3.2 4.8 0.00 0.00 0.00 28 1096.8
20260504203241 22 5 1.6 4.8 0.00 0.00 0.00 25 1096.9
20260504202741 23 351 3.2 4.8 0.00 0.00 0.00 26 1097.0
20260504202238 23 239 3.2 4.8 0.00 0.00 0.00 28 1096.9
20260504201735 22 0 1.6 4.8 0.00 0.00 0.00 28 1097.3
20260504201232 22 250 3.2 4.8 0.00 0.00 0.00 27 1096.6
20260504200730 23 294 1.6 8.0 0.00 0.00 0.00 29 1097.0
20260504200226 22 312 6.4 9.7 0.00 0.00 0.00 29 1097.4
20260504195722 22 315 4.8 9.7 0.00 0.00 0.00 30 1097.3
20260504195218 23 254 1.6 3.2 0.00 0.00 0.00 29 1097.4
20260504194716 22 134 3.2 8.0 0.00 0.00 0.00 30 1097.4
20260504194212 22 200 1.6 8.0 0.00 0.00 0.00 31 1097.6
20260504193708 22 301 0.0 8.0 0.00 0.00 0.00 31 1097.6
20260504193206 22 226 3.2 9.7 0.00 0.00 0.00 29 1097.4
20260504192704 22 231 1.6 9.7 0.00 0.00 0.00 31 1097.7
20260504192201 22 186 1.6 3.2 0.00 0.00 0.00 34 1097.7
20260504191700 22 236 1.6 3.2 0.00 0.00 0.00 32 1097.8
20260504191156 22 240 3.2 8.0 0.00 0.00 0.00 31 1098.0
20260504190652 21 233 1.6 9.7 0.00 0.00 0.00 32 1098.1
20260504190148 22 222 1.6 4.8 0.00 0.00 0.00 32 1098.2
20260504185645 21 264 6.4 11.3 0.00 0.00 0.00 33 1098.2
20260504185142 21 225 6.4 11.3 0.00 0.00 0.00 31 1098.1
20260504184638 21 207 1.6 8.0 0.00 0.00 0.00 35 1098.2
20260504184133 21 212 1.6 3.2 0.00 0.00 0.00 31 1098.3
20260504183630 21 27 8.0 11.3 0.00 0.00 0.00 32 1098.5
20260504183128 21 150 4.8 4.8 0.00 0.00 0.00 34 1098.6
20260504182625 21 171 0.0 1.6 0.00 0.00 0.00 36 1098.5
20260504182123 21 197 4.8 4.8 0.00 0.00 0.00 33 1098.2
20260504181620 21 182 1.6 8.0 0.00 0.00 0.00 32 1098.5
20260504181117 21 317 1.6 4.8 0.00 0.00 0.00 31 1098.4
20260504180616 20 294 3.2 8.0 0.00 0.00 0.00 33 1098.8
20260504180115 21 323 8.0 11.3 0.00 0.00 0.00 34 1098.3
20260504175612 20 359 3.2 8.0 0.00 0.00 0.00 35 1098.6
20260504175108 20 11 6.4 9.7 0.00 0.00 0.00 35 1098.6
20260504174607 20 231 1.6 4.8 0.00 0.00 0.00 39 1099.0
20260504174102 20 167 1.6 3.2 0.00 0.00 0.00 36 1098.8
20260504173559 20 188 3.2 3.2 0.00 0.00 0.00 37 1098.9
20260504173057 20 230 1.6 3.2 0.00 0.00 0.00 35 1099.0
20260504172553 20 177 1.6 4.8 0.00 0.00 0.00 36 1098.8
20260504172050 20 216 0.0 4.8 0.00 0.00 0.00 36 1098.9
20260504171547 19 153 1.6 4.8 0.00 0.00 0.00 39 1099.0
20260504171044 20 208 0.0 4.8 0.00 0.00 0.00 38 1098.8
20260504170539 20 208 0.0 3.2 0.00 0.00 0.00 33 1098.8
20260504150923 15 225 0.0 1.6 0.00 0.00 0.00 44 1099.1
20260504150420 15 308 1.6 1.6 0.00 0.00 0.00 45 1099.1
20260504140847 7 231 0.0 1.6 0.00 0.00 0.00 66 1099.2
20260504140343 7 232 1.6 1.6 0.00 0.00 0.00 68 1099.4
20260504130811 3 253 0.0 0.0 0.00 0.00 0.00 83 1098.9
20260504130307 3 253 0.0 0.0 0.00 0.00 0.00 86 1099.1
20260504120231 4 261 0.0 0.0 0.00 0.00 0.00 87 1099.0
20260504110658 5 271 0.0 0.0 0.00 0.00 0.00 79 1099.2
20260504110155 4 271 0.0 0.0 0.00 0.00 0.00 78 1098.9
20260504100119 5 284 0.0 1.6 0.00 0.00 0.00 73 1098.6
20260504081512 9 316 0.0 1.6 0.00 0.00 0.00 55 1098.9
20260504081007 10 336 1.6 3.2 0.00 0.00 0.00 54 1098.8
20260504080504 10 331 1.6 3.2 0.00 0.00 0.00 54 1098.8
20260504050317 12 208 0.0 0.0 0.00 0.00 0.00 49 1099.2
20260504045814 12 218 0.0 1.6 0.00 0.00 0.00 49 1099.4
20260504045309 12 230 1.6 1.6 0.00 0.00 0.00 47 1099.4
20260504044806 12 208 0.0 1.6 0.00 0.00 0.00 47 1099.4
20260504044304 12 189 0.0 1.6 0.00 0.00 0.00 46 1099.2
20260504043801 13 188 0.0 0.0 0.00 0.00 0.00 44 1099.3
20260504043258 13 188 0.0 1.6 0.00 0.00 0.00 42 1099.3
20260504042755 13 188 0.0 0.0 0.00 0.00 0.00 42 1099.3
20260504042251 13 188 0.0 1.6 0.00 0.00 0.00 42 1099.2
20260504041747 13 189 0.0 1.6 0.00 0.00 0.00 42 1099.1
20260504041243 13 188 0.0 1.6 0.00 0.00 0.00 42 1099.1
20260504040739 13 190 0.0 1.6 0.00 0.00 0.00 43 1099.3
20260504040238 13 190 0.0 1.6 0.00 0.00 0.00 44 1099.2
20260504035733 13 190 0.0 0.0 0.00 0.00 0.00 45 1099.4
20260504035231 12 190 0.0 0.0 0.00 0.00 0.00 45 1099.3
20260504034729 13 190 0.0 0.0 0.00 0.00 0.00 46 1099.2
20260504034226 13 189 0.0 0.0 0.00 0.00 0.00 43 1099.2
20260504033723 13 189 0.0 0.0 0.00 0.00 0.00 43 1099.2
20260504033221 14 190 0.0 1.6 0.00 0.00 0.00 42 1099.2
20260504032717 15 190 0.0 1.6 0.00 0.00 0.00 41 1099.1
20260504032214 15 189 1.6 1.6 0.00 0.00 0.00 41 1099.1
20260504031710 15 189 1.6 1.6 0.00 0.00 0.00 41 1099.1
20260504031208 15 190 0.0 1.6 0.00 0.00 0.00 41 1099.1
20260504030703 15 190 0.0 1.6 0.00 0.00 0.00 40 1099.0
20260504030201 16 190 0.0 1.6 0.00 0.00 0.00 39 1099.2
20260504025658 16 191 0.0 1.6 0.00 0.00 0.00 37 1099.0
20260504025154 16 192 1.6 1.6 0.00 0.00 0.00 37 1099.1
20260504024651 15 197 0.0 0.0 0.00 0.00 0.00 38 1099.0
20260504024148 16 197 0.0 0.0 0.00 0.00 0.00 38 1098.8
20260504023645 16 197 0.0 0.0 0.00 0.00 0.00 40 1099.0
20260504023141 17 197 0.0 0.0 0.00 0.00 0.00 36 1099.0
20260504022637 17 197 0.0 0.0 0.00 0.00 0.00 35 1099.0
20260504022133 17 197 0.0 0.0 0.00 0.00 0.00 35 1098.9
20260504021631 18 197 0.0 0.0 0.00 0.00 0.00 34 1098.6
20260504021127 18 198 0.0 0.0 0.00 0.00 0.00 32 1098.9
20260504020625 18 198 0.0 0.0 0.00 0.00 0.00 32 1098.8
20260504020120 19 199 0.0 0.0 0.00 0.00 0.00 29 1098.9
20260504015617 20 199 0.0 1.6 0.00 0.00 0.00 28 1099.0
20260504015114 20 196 0.0 0.0 0.00 0.00 0.00 27 1099.1
20260504014609 21 194 0.0 1.6 0.00 0.00 0.00 25 1099.1
20260504014107 21 202 0.0 0.0 0.00 0.00 0.00 25 1099.2
20260504013604 21 208 1.6 3.2 0.00 0.00 0.00 24 1099.2
20260504013101 21 216 1.6 4.8 0.00 0.00 0.00 24 1099.0
20260504012558 21 245 1.6 3.2 0.00 0.00 0.00 23 1099.0
20260504012056 21 171 0.0 3.2 0.00 0.00 0.00 23 1099.1
20260504011553 22 211 1.6 3.2 0.00 0.00 0.00 23 1099.3
20260504011049 22 182 0.0 1.6 0.00 0.00 0.00 23 1099.2
20260504010544 22 162 0.0 3.2 0.00 0.00 0.00 23 1099.4
20260504010041 22 204 3.2 3.2 0.00 0.00 0.00 24 1099.4
20260504005538 22 250 4.8 4.8 0.00 0.00 0.00 22 1099.3